Location: Rounton
(54.4000°N, 1.3500°W)
Time: 21:24:16
(UTC+00:00)

Vanguard 3 - Pass Details

Date: 03 December 2021
Orbit: 508 x 3260 km, 33.3° (Epoch: 17 January)

Event Time Altitude Azimuth Distance (km) Brightness Sun altitude
Rises 10:01:31 0° 267° (W) 6,505 11.5 9.6°
Reaches altitude 10° 10:10:47 10° 240° (WSW) 4,717 11.2 10.2°
Maximum altitude 10:13:47 11° 227° (SW) 4,325 11.2 10.4°
Drops below altitude 10° 10:16:29 10° 212° (SSW) 4,127 11.3 10.6°
Sets 10:22:38 0° 180° (S) 4,397 12.3 10.9°
